Weather History for K19A - April, 2013

Change the Weather History Date:

Thursday, April 4, 2013

  Actual Average (KGVL) Record (KGVL)
Temperature  
Mean Temperature 42 °F 58 °F  
Max Temperature 46 °F 68 °F 85 °F (1934)
Min Temperature 37 °F 47 °F 25 °F (1943)
Degree Days  
Heating Degree Days 24 8  
Month to date heating degree days 34  
Since 1 July heating degree days 2886  
Cooling Degree Days 0 1  
Month to date cooling degree days 2  
Year to date cooling degree days 7  
Moisture  
Dew Point 36 °F    
Average Humidity 82    
Maximum Humidity 93    
Minimum Humidity 46    
Precipitation  
Precipitation 0.00 in 0.11 in 1.30 in (1979)
Month to date precipitation 0.48  
Year to date precipitation 15.80  
Snow  
Snow 0.00 in - - ()
Month to date snowfall  
Since 1 July snowfall  
Snow Depth -    
Sea Level Pressure  
Sea Level Pressure 30.09 in    
Wind  
Wind Speed 5 mph (ENE)    
Max Wind Speed 12 mph    
Max Gust Speed 23 mph    
Visibility 8 miles    
Events Rain    
T = Trace of Precipitation, MM = Missing Value Source: NWS Daily Summary

Daily Weather History Graph

Daily Weather History Graph

Search for Another Location

Airport or City:

Trip Planner

Search our weather history database for the weather conditions in past years. The results will help you decide how hot, cold, wet, or windy it might be!

Date:

Astronomy

Apr. 04, 2013 Rise Set
Actual Time 7:17 AM EDT 7:57 PM EDT
Civil Twilight 6:51 AM EDT 8:22 PM EDT
Nautical Twilight 6:22 AM EDT 8:52 PM EDT
Astronomical Twilight 5:51 AM EDT 9:23 PM EDT
Moon 3:28 AM EDT (4/4) 2:28 PM EDT (4/4)
Length of Visible Light 13h 31m
Length of Day
12h 40m
Waning Crescent, 34% of the Moon is Illuminated
Apr 4
Waning Crescent
Apr 10
New
Apr 18
First Quarter
Apr 25
Full
May 2
Last Quarter

Hourly Weather History & Observations

Time (EDT) Temp. Windchill Dew Point Humidity Pressure Visibility Wind Dir Wind Speed Gust Speed Precip Events Conditions
12:15 AM 44.6 °F 42.2 °F 42.8 °F 93% 30.19 in 10.0 mi East 4.6 mph - N/A Rain Rain
12:35 AM 44.6 °F - 41.0 °F 87% 30.19 in 10.0 mi Calm Calm - N/A Rain Light Rain
12:55 AM 44.6 °F - 41.0 °F 87% 30.19 in 10.0 mi Calm Calm - N/A   Drizzle
1:15 AM 44.6 °F - 42.8 °F 93% 30.19 in 10.0 mi Calm Calm - N/A Rain Light Rain
1:35 AM 44.6 °F - 42.8 °F 93% 30.18 in 10.0 mi Calm Calm - N/A   Light Drizzle
1:55 AM 44.6 °F - 42.8 °F 93% 30.18 in 10.0 mi Calm Calm - N/A   Overcast
2:15 AM 44.6 °F 43.1 °F 42.8 °F 93% 30.17 in 10.0 mi ENE 3.5 mph - N/A   Overcast
2:35 AM 44.6 °F 43.1 °F 42.8 °F 93% 30.16 in 10.0 mi NE 3.5 mph - N/A   Overcast
2:55 AM 44.6 °F 42.2 °F 41.0 °F 87% 30.16 in 10.0 mi ENE 4.6 mph - N/A Rain Light Rain
3:15 AM 44.6 °F 42.2 °F 41.0 °F 87% 30.16 in 10.0 mi East 4.6 mph - N/A Rain Light Rain
3:35 AM 44.6 °F - 41.0 °F 87% 30.16 in 10.0 mi Calm Calm - N/A Rain Light Rain
3:55 AM 44.6 °F 42.2 °F 41.0 °F 87% 30.15 in 10.0 mi East 4.6 mph - N/A   Drizzle
4:15 AM 44.6 °F - 41.0 °F 87% 30.15 in 10.0 mi Calm Calm - N/A Rain Light Rain
4:35 AM 44.6 °F - 41.0 °F 87% 30.15 in 10.0 mi Calm Calm - N/A Rain Rain
4:55 AM 44.6 °F 43.1 °F 41.0 °F 87% 30.15 in 10.0 mi East 3.5 mph - N/A Rain Light Rain
5:15 AM 44.6 °F 42.2 °F 39.2 °F 81% 30.14 in 10.0 mi ENE 4.6 mph - N/A   Drizzle
5:35 AM 46.4 °F 44.3 °F 33.8 °F 62% 30.13 in 10.0 mi East 4.6 mph - N/A   Overcast
5:55 AM 46.4 °F 42.9 °F 32.0 °F 57% 30.13 in 10.0 mi East 6.9 mph - N/A   Overcast
6:15 AM 46.4 °F 41.1 °F 32.0 °F 57% 30.12 in 10.0 mi East 11.5 mph 17.3 mph N/A   Overcast
6:35 AM 46.4 °F 41.9 °F 30.2 °F 53% 30.12 in 10.0 mi East 9.2 mph 20.7 mph N/A   Overcast
6:55 AM 46.4 °F 41.1 °F 30.2 °F 53% 30.12 in 10.0 mi East 11.5 mph 23.0 mph N/A Rain Light Rain
7:15 AM 46.4 °F 41.9 °F 28.4 °F 50% 30.11 in 10.0 mi East 9.2 mph 17.3 mph N/A   Overcast
7:35 AM 46.4 °F 42.9 °F 30.2 °F 53% 30.11 in 10.0 mi East 6.9 mph - N/A   Overcast
7:55 AM 44.6 °F 40.7 °F 32.0 °F 61% 30.11 in 10.0 mi East 6.9 mph - N/A Rain Light Rain
8:15 AM 44.6 °F 40.2 °F 32.0 °F 61% 30.11 in 10.0 mi East 8.1 mph 16.1 mph N/A Rain Light Rain
8:35 AM 46.4 °F 42.9 °F 30.2 °F 53% 30.12 in 10.0 mi East 6.9 mph - N/A   Overcast
8:55 AM 46.4 °F 41.5 °F 26.6 °F 46% 30.11 in 10.0 mi East 10.4 mph 18.4 mph N/A   Light Drizzle
9:15 AM 44.6 °F 40.7 °F 30.2 °F 57% 30.12 in 10.0 mi East 6.9 mph 17.3 mph N/A Rain Light Rain
9:35 AM 44.6 °F 40.7 °F 30.2 °F 57% 30.11 in 7.0 mi East 6.9 mph 17.3 mph N/A Rain Light Rain
9:55 AM 42.8 °F 38.0 °F 32.0 °F 66% 30.11 in 7.0 mi East 8.1 mph 19.6 mph N/A Rain Light Rain
10:15 AM 42.8 °F 40.1 °F 32.0 °F 66% 30.14 in 10.0 mi East 4.6 mph - N/A Rain Light Rain
10:35 AM 42.8 °F 37.5 °F 32.0 °F 66% 30.13 in 5.0 mi East 9.2 mph 19.6 mph N/A Rain Light Rain
10:55 AM 41.0 °F 36.4 °F 32.0 °F 70% 30.14 in 5.0 mi East 6.9 mph - N/A Rain Light Rain
11:15 AM 41.0 °F 36.4 °F 37.4 °F 87% 30.15 in 5.0 mi East 6.9 mph - N/A Rain Rain
11:35 AM 41.0 °F 35.2 °F 37.4 °F 87% 30.14 in 4.0 mi East 9.2 mph 16.1 mph N/A   Drizzle
11:55 AM 41.0 °F 35.2 °F 35.6 °F 81% 30.13 in 4.0 mi East 9.2 mph 18.4 mph N/A   Light Drizzle
12:35 PM 39.2 °F 33.0 °F 37.4 °F 93% 30.11 in 4.0 mi East 9.2 mph 18.4 mph N/A Rain Rain
12:55 PM 39.2 °F 33.6 °F 37.4 °F 93% 30.10 in 5.0 mi NE 8.1 mph - N/A Rain Light Rain
1:15 PM 39.2 °F 33.0 °F 37.4 °F 93% 30.10 in 4.0 mi ENE 9.2 mph - N/A Rain Light Rain
1:35 PM 39.2 °F 35.0 °F 37.4 °F 93% 30.10 in 4.0 mi NE 5.8 mph - N/A Rain Rain
1:55 PM 39.2 °F 35.9 °F 37.4 °F 93% 30.09 in 4.0 mi ENE 4.6 mph - N/A   Drizzle
2:15 PM 39.2 °F 35.9 °F 37.4 °F 93% 30.08 in 5.0 mi ENE 4.6 mph - N/A   Drizzle
2:35 PM 37.4 °F - 35.6 °F 93% 30.07 in 5.0 mi Calm Calm - N/A Rain Rain
2:55 PM 37.4 °F 30.8 °F 35.6 °F 93% 30.06 in 5.0 mi ENE 9.2 mph - N/A   Drizzle
3:15 PM 37.4 °F 32.1 °F 35.6 °F 93% 30.05 in 5.0 mi ENE 6.9 mph - N/A   Light Drizzle
3:55 PM 37.4 °F 33.8 °F 35.6 °F 93% 30.03 in 4.0 mi ENE 4.6 mph - N/A Rain Rain
4:15 PM 37.4 °F 32.8 °F 35.6 °F 93% 30.03 in 5.0 mi ENE 5.8 mph - N/A Rain Light Rain
4:35 PM 37.4 °F 32.8 °F 35.6 °F 93% 30.02 in 4.0 mi ENE 5.8 mph - N/A   Overcast
4:55 PM 37.4 °F 33.8 °F 35.6 °F 93% 30.02 in 5.0 mi ENE 4.6 mph - N/A   Overcast
5:15 PM 37.4 °F 34.9 °F 35.6 °F 93% 30.01 in 7.0 mi ENE 3.5 mph - N/A   Overcast
5:35 PM 39.2 °F 35.9 °F 35.6 °F 87% 30.01 in 10.0 mi ENE 4.6 mph - N/A   Overcast
5:55 PM 39.2 °F 34.2 °F 35.6 °F 87% 30.01 in 7.0 mi ENE 6.9 mph - N/A   Overcast
6:15 PM 39.2 °F 34.2 °F 35.6 °F 87% 30.01 in 10.0 mi ENE 6.9 mph - N/A   Overcast
6:35 PM 39.2 °F 35.9 °F 35.6 °F 87% 30.01 in 10.0 mi ENE 4.6 mph - N/A   Overcast
6:55 PM 39.2 °F 34.2 °F 35.6 °F 87% 30.00 in 10.0 mi East 6.9 mph - N/A   Overcast
7:15 PM 39.2 °F 35.9 °F 35.6 °F 87% 30.00 in 10.0 mi NE 4.6 mph - N/A   Overcast
7:55 PM 37.4 °F 31.4 °F 35.6 °F 93% 30.00 in 10.0 mi East 8.1 mph - N/A   Overcast
8:15 PM 37.4 °F 33.8 °F 35.6 °F 93% 29.99 in 7.0 mi East 4.6 mph - N/A   Overcast
8:35 PM 37.4 °F 33.8 °F 35.6 °F 93% 29.99 in 7.0 mi East 4.6 mph - N/A   Overcast
8:55 PM 37.4 °F 32.8 °F 35.6 °F 93% 29.99 in 10.0 mi East 5.8 mph - N/A   Overcast
9:35 PM 39.2 °F 37.0 °F 35.6 °F 87% 29.99 in 10.0 mi East 3.5 mph - N/A   Overcast
9:55 PM 39.2 °F 35.0 °F 35.6 °F 87% 29.99 in 10.0 mi East 5.8 mph - N/A   Overcast
10:15 PM 39.2 °F 34.2 °F 35.6 °F 87% 29.99 in 7.0 mi ENE 6.9 mph - N/A   Overcast
10:35 PM 39.2 °F 35.9 °F 35.6 °F 87% 29.99 in 7.0 mi ENE 4.6 mph - N/A   Overcast
10:55 PM 39.2 °F 35.0 °F 35.6 °F 87% 29.98 in 10.0 mi East 5.8 mph - N/A   Overcast
11:15 PM 39.2 °F - 35.6 °F 87% 29.98 in 10.0 mi Calm Calm - N/A   Overcast
11:35 PM 39.2 °F 37.0 °F 35.6 °F 87% 29.98 in 10.0 mi East 3.5 mph - N/A   Overcast
11:55 PM 39.2 °F 37.0 °F 35.6 °F 87% 29.98 in 10.0 mi East 3.5 mph - N/A   Overcast